Location: UBC Liquid-Mirror Observatory
(49.2876°N, 122.5728°W)
Time: 09:25:14
(UTC-07:00)

Amateur Radio Satellites - All Passes

Search period start: 23 March 2017 08:55
Search period end: 24 March 2017 08:55
Location: UBC Liquid-Mirror Observatory, 49.2876°N, 122.5728°W

Satellite Date Start Highest point End Downlink Frequencies (MHz)
Time Altitude Azimuth
LilacSat-2 23 Mar 09:00:21 09:02:03 13° 301° (WNW) 09:03:46 437.200
PRISM 23 Mar 09:01:51 09:05:26 31° 66° (ENE) 09:09:02 437.425
XW-2F 23 Mar 09:06:03 09:07:29 12° 301° (WNW) 09:08:54 145.980 - 146.000
CUTE-I 23 Mar 09:15:53 09:19:59 23° 302° (WNW) 09:24:04 437.470
CUBEBUG 2 23 Mar 09:18:17 09:22:49 68° 102° (ESE) 09:27:09 437.445
XW-2A 23 Mar 09:18:35 09:21:44 35° 290° (WNW) 09:24:51 145.665 - 145.685
STRAND 1 23 Mar 09:22:46 09:25:02 13° 274° (W) 09:27:17 437.568
FO-29 23 Mar 09:34:16 09:41:15 38° 61° (ENE) 09:47:49 435.910
NO-84 23 Mar 09:39:27 09:42:17 72° 148° (SSE) 09:45:12 435.350 FM
Oscar 11 23 Mar 09:41:39 09:45:38 35° 96° (E) 09:49:35 .
ZACube-1 23 Mar 09:42:07 09:46:16 44° 98° (E) 09:50:17 437.345
HO-68 23 Mar 09:54:01 10:00:59 57° 295° (WNW) 10:07:57 435.675
BEESAT 3 23 Mar 09:57:19 09:59:01 12° 250° (WSW) 10:00:44 437.485
BEESAT 2 23 Mar 10:03:17 10:06:32 23° 244° (WSW) 10:09:47 435.950
TIGRISAT 23 Mar 10:07:48 10:12:28 67° 73° (ENE) 10:17:07 435.000
AAUSAT CUBESAT 2 23 Mar 10:10:44 10:14:43 48° 289° (WNW) 10:18:42 437.432
AIST 2D 23 Mar 10:11:27 10:11:41 10° 59° (ENE) 10:11:55 435.315
AO-73 23 Mar 10:12:41 10:17:01 84° 106° (ESE) 10:21:12 145.935
SEEDS 23 Mar 10:15:40 10:19:03 25° 296° (WNW) 10:22:27 437.485
CUTE 1.7 + AOD 2 23 Mar 10:15:49 10:18:43 18° 299° (WNW) 10:21:36 437.475
UNISAT 6 23 Mar 10:16:47 10:21:30 85° 74° (ENE) 10:26:12 437.425
POLYITAN 1 23 Mar 10:26:20 10:28:19 13° 57° (ENE) 10:30:18 437.675
DELFI C3 23 Mar 10:28:10 10:31:50 34° 97° (E) 10:35:29 145.870
UWE-3 23 Mar 10:29:13 10:33:20 39° 292° (WNW) 10:37:18 435.000/436.395/437.385
QB50P2 23 Mar 10:30:14 10:32:40 15° 58° (ENE) 10:35:05 145.880/145.840
PRISM 23 Mar 10:37:10 10:40:42 29° 264° (W) 10:44:18 437.425
YUBILEINY 23 Mar 10:38:13 10:45:50 32° 297° (WNW) 10:53:30 435.215
DUCHIFAT 1 23 Mar 10:47:44 10:50:29 17° 60° (ENE) 10:53:15 145.980
PCSat 23 Mar 10:50:49 10:55:48 39° 114° (ESE) 11:00:50 145.827
CUBEBUG 2 23 Mar 10:55:58 10:58:54 17° 301° (WNW) 11:01:47 437.445
NO-84 23 Mar 11:17:24 11:20:02 30° 349° (N) 11:22:48 435.350 FM
Oscar 11 23 Mar 11:18:00 11:21:40 28° 295° (WNW) 11:25:19 .
FO-29 23 Mar 11:18:12 11:25:57 61° 260° (W) 11:33:18 435.910
ZACube-1 23 Mar 11:18:56 11:22:17 22° 297° (WNW) 11:25:33 437.345
BUGSAT 1 23 Mar 11:19:28 11:21:37 14° 57° (ENE) 11:23:45 437.445
ESTCUBE 1 23 Mar 11:27:57 11:30:07 13° 88° (E) 11:32:17 437.505/2401.250
NANOSAT C BR1 23 Mar 11:30:12 11:34:15 43° 69° (ENE) 11:38:18 145.865
EO-79 23 Mar 11:32:20 11:36:28 49° 70° (ENE) 11:40:37 145.935-145.965
RS-15 23 Mar 11:33:57 11:37:39 12° 89° (E) 11:41:24 29.354- 29.394
LO-87 23 Mar 11:35:12 11:38:15 24° 94° (E) 11:41:14 145.935 - 145.965
AIST 2D 23 Mar 11:40:47 11:44:20 83° 257° (WSW) 11:47:55 435.315
HO-68 23 Mar 11:43:21 11:47:18 16° 317° (NW) 11:51:14 435.675
TIGRISAT 23 Mar 11:46:31 11:49:36 17° 271° (W) 11:52:41 435.000
AO-73 23 Mar 11:50:32 11:52:37 13° 303° (WNW) 11:54:40 145.935
UNISAT 6 23 Mar 11:56:34 11:58:49 13° 273° (W) 12:01:05 437.425
POLYITAN 1 23 Mar 11:59:09 12:03:27 90° 257° (WSW) 12:07:47 437.675
DELFI C3 23 Mar 12:03:14 12:06:30 25° 295° (WNW) 12:09:46 145.870
QB50P2 23 Mar 12:03:37 12:07:54 77° 256° (WSW) 12:12:13 145.880/145.840
DUCHIFAT 1 23 Mar 12:21:29 12:25:42 64° 258° (WSW) 12:29:59 145.980
Gurwin Techsat 1B 23 Mar 12:25:51 12:29:04 16° 54° (NE) 12:32:17 435.225
SPROUT 23 Mar 12:31:01 12:33:39 16° 89° (E) 12:36:17 437.525
PCSat 23 Mar 12:34:00 12:39:11 44° 315° (NW) 12:44:24 145.827
Oscar 19 23 Mar 12:38:34 12:42:58 30° 62° (ENE) 12:47:22 437.125/150
DX 1 23 Mar 12:45:59 12:47:05 11° 87° (E) 12:48:11 434.975-435.025
50 SAT 23 Mar 12:50:28 12:52:35 15° 91° (E) 12:54:42 437.505
BUGSAT 1 23 Mar 12:52:07 12:56:22 84° 257° (WSW) 13:00:39 437.445
VELOX 1 23 Mar 12:54:52 12:58:49 30° 95° (E) 13:02:45 145.980
NO-84 23 Mar 12:55:25 12:58:08 30° 10° (N) 13:01:01 435.350 FM
ESTCUBE 1 23 Mar 13:02:59 13:07:30 80° 286° (WNW) 13:12:01 437.505/2401.250
NANOSAT C BR1 23 Mar 13:06:49 13:10:09 22° 267° (W) 13:13:31 145.865
LO-87 23 Mar 13:08:29 13:11:42 29° 292° (WNW) 13:14:54 145.935 - 145.965
FO-29 23 Mar 13:08:44 13:12:18 14° 279° (W) 13:15:49 435.910
EO-79 23 Mar 13:09:21 13:12:30 20° 268° (W) 13:15:39 145.935-145.965
AO-7 23 Mar 13:16:06 13:21:53 22° 41° (NE) 13:27:39 .
UKube-1 23 Mar 13:31:26 13:34:51 22° 93° (E) 13:38:14 .
RS-15 23 Mar 13:35:27 13:46:50 52° 113° (ESE) 13:58:31 29.354- 29.394
POLYITAN 1 23 Mar 13:38:49 13:39:53 11° 274° (W) 13:40:58 437.675
Gurwin Techsat 1B 23 Mar 14:02:56 14:08:15 85° 74° (ENE) 14:13:37 435.225
SPROUT 23 Mar 14:05:43 14:10:00 62° 288° (WNW) 14:14:13 437.525
Oscar 19 23 Mar 14:17:13 14:22:07 45° 261° (W) 14:27:03 437.125/150
ITAMSAT 1 23 Mar 14:17:54 14:22:13 27° 60° (ENE) 14:26:32 435.822/435.867
DX 1 23 Mar 14:19:31 14:23:56 87° 99° (E) 14:28:20 434.975-435.025
PCSat 23 Mar 14:20:43 14:24:01 16° 339° (NNW) 14:27:20 145.827
50 SAT 23 Mar 14:22:31 14:25:53 43° 289° (WNW) 14:29:13 437.505
VELOX 1 23 Mar 14:31:15 14:35:18 35° 294° (WNW) 14:39:20 145.980
NO-84 23 Mar 14:32:50 14:35:58 88° 28° (NNE) 14:39:23 435.350 FM
ESTCUBE 1 23 Mar 14:41:43 14:43:35 12° 305° (NW) 14:45:26 437.505/2401.250
AO-7 23 Mar 15:05:02 15:13:16 67° 64° (ENE) 15:21:29 .
UKube-1 23 Mar 15:06:57 15:11:05 45° 291° (WNW) 15:15:13 .
BEESAT 23 Mar 15:28:49 15:33:00 29° 95° (E) 15:37:08 436.000
SO-50 23 Mar 15:32:26 15:35:44 19° 113° (ESE) 15:39:00 436.795
ITUPSAT 1 23 Mar 15:42:32 15:46:59 38° 97° (E) 15:51:25 437.325
Gurwin Techsat 1B 23 Mar 15:45:45 15:48:54 16° 273° (W) 15:52:05 435.225
RS-15 23 Mar 15:47:04 15:59:11 66° 319° (NW) 16:11:35 29.354- 29.394
ITAMSAT 1 23 Mar 15:56:16 16:01:23 54° 259° (W) 16:06:33 435.822/435.867
DX 1 23 Mar 15:57:15 15:59:30 14° 304° (WNW) 16:01:45 434.975-435.025
PCSat 23 Mar 16:07:44 16:09:49 12° 6° (N) 16:11:54 145.827
NO-84 23 Mar 16:11:03 16:13:14 16° 226° (SW) 16:15:31 435.350 FM
MOZHAYETS 4 23 Mar 16:16:01 16:20:15 36° 97° (E) 16:24:27
KKS-1 23 Mar 16:24:31 16:25:32 11° 86° (E) 16:26:33 437.445
DOVE 4 23 Mar 16:49:51 16:52:58 18° 57° (ENE) 16:56:11 437.250
YUBILEINY 23 Mar 16:50:07 16:53:00 12° 41° (NE) 16:55:54 435.215
HO-68 23 Mar 16:57:51 17:00:09 12° 37° (NE) 17:02:27 435.675
AO-7 23 Mar 16:59:13 17:06:35 34° 265° (W) 17:14:00 .
CUBESAT XI-V 23 Mar 16:59:33 17:02:56 20° 91° (E) 17:06:19 437.345
BEESAT 23 Mar 17:06:26 17:10:53 39° 293° (WNW) 17:15:16 436.000
XW-2D 23 Mar 17:06:28 17:08:30 14° 61° (ENE) 17:10:33 145.860 - 145.880
STARS 23 Mar 17:09:06 17:11:26 14° 89° (E) 17:13:46 437.465
SO-50 23 Mar 17:11:06 17:15:44 71° 312° (NW) 17:20:20 436.795
XW-2B 23 Mar 17:12:01 17:14:19 15° 61° (ENE) 17:16:36 145.730 - 145.750
NUDT-PHONESAT 23 Mar 17:18:04 17:20:11 15° 61° (ENE) 17:22:18 437.300
ITUPSAT 1 23 Mar 17:20:33 17:24:45 31° 296° (WNW) 17:28:54 437.325
KAITUO 1B 23 Mar 17:20:52 17:23:09 16° 62° (ENE) 17:25:25 145.475/437.950
XW-2C 23 Mar 17:21:30 17:24:15 19° 63° (ENE) 17:27:00 145.795 - 145.815
CUTE-I 23 Mar 17:22:17 17:26:48 28° 61° (ENE) 17:31:19 437.470
PCSat 23 Mar 17:51:06 17:55:20 22° 31° (NNE) 17:59:34 145.827
MOZHAYETS 4 23 Mar 17:53:21 17:57:19 30° 295° (WNW) 18:01:15
KKS-1 23 Mar 17:58:17 18:02:49 84° 103° (ESE) 18:07:18 437.445
RS-15 23 Mar 18:03:04 18:14:28 40° 351° (N) 18:25:51 29.354- 29.394
LilacSat-2 23 Mar 18:09:57 18:13:46 62° 73° (ENE) 18:17:33 437.200
XW-2F 23 Mar 18:14:38 18:18:24 65° 74° (ENE) 18:22:11 145.980 - 146.000
O/OREOS (USA 219) 23 Mar 18:18:50 18:23:17 62° 112° (ESE) 18:27:49 437.305
XW-2A 23 Mar 18:22:38 18:24:22 13° 62° (ENE) 18:26:07 145.665 - 145.685
DOVE 4 23 Mar 18:25:21 18:30:00 77° 258° (WSW) 18:34:59 437.250
CUBESAT XI-V 23 Mar 18:36:07 18:40:39 56° 289° (WNW) 18:45:12 437.345
M-CUBED/EXP-1 PRIME 23 Mar 18:36:53 18:39:49 17° 95° (E) 18:42:47 437.505
XW-2D 23 Mar 18:38:28 18:42:15 64° 259° (WSW) 18:46:03 145.860 - 145.880
HO-68 23 Mar 18:39:28 18:46:03 41° 60° (ENE) 18:52:38 435.675
STARS 23 Mar 18:43:52 18:48:19 74° 287° (WNW) 18:52:44 437.465
XW-2B 23 Mar 18:44:22 18:48:07 56° 260° (W) 18:51:53 145.730 - 145.750
YUBILEINY 23 Mar 18:44:31 18:52:48 44° 69° (ENE) 19:01:00 435.215
CUBEBUG 2 23 Mar 18:45:44 18:48:22 15° 57° (ENE) 18:50:59 437.445
NUDT-PHONESAT 23 Mar 18:49:59 18:53:42 59° 260° (W) 18:57:25 437.300
KAITUO 1B 23 Mar 18:53:06 18:56:47 54° 259° (W) 19:00:29 145.475/437.950
SO-50 23 Mar 18:53:37 18:56:59 20° 334° (NNW) 19:00:21 436.795
XW-2C 23 Mar 18:54:33 18:58:12 43° 261° (W) 19:01:51 145.795 - 145.815
CUTE-I 23 Mar 19:01:20 19:06:35 52° 260° (W) 19:11:52 437.470
AAUSAT CUBESAT 2 23 Mar 19:30:07 19:33:17 22° 64° (ENE) 19:36:28 437.432
PCSat 23 Mar 19:34:08 19:39:37 79° 54° (NE) 19:45:03 145.827
SEEDS 23 Mar 19:34:59 19:38:56 45° 70° (ENE) 19:42:56 437.485
CUTE 1.7 + AOD 2 23 Mar 19:35:22 19:39:33 67° 73° (ENE) 19:43:45 437.475
KKS-1 23 Mar 19:36:15 19:38:46 15° 303° (WNW) 19:41:15 437.445
AO-73 23 Mar 19:37:39 19:40:20 16° 59° (ENE) 19:43:00 145.935
STRAND 1 23 Mar 19:46:38 19:50:49 25° 93° (E) 19:54:57 437.568
LilacSat-2 23 Mar 19:46:39 19:48:27 13° 271° (W) 19:50:15 437.200
XW-2F 23 Mar 19:51:25 19:52:59 12° 272° (W) 19:54:33 145.980 - 146.000
XW-2A 23 Mar 19:53:20 19:56:44 54° 260° (W) 20:00:09 145.665 - 145.685
UWE-3 23 Mar 19:53:21 19:57:35 35° 67° (ENE) 20:01:47 435.000/436.395/437.385
O/OREOS (USA 219) 23 Mar 19:59:36 20:03:08 22° 313° (NW) 20:06:42 437.305
DOVE 4 23 Mar 20:07:38 20:08:39 11° 278° (W) 20:09:40 437.250
M-CUBED/EXP-1 PRIME 23 Mar 20:10:06 20:14:39 73° 292° (WNW) 20:19:19 437.505
RS-15 23 Mar 20:18:46 20:30:38 47° 24° (NNE) 20:42:12 29.354- 29.394
CUBEBUG 2 23 Mar 20:19:32 20:24:18 89° 79° (E) 20:29:05 437.445
STARS 23 Mar 20:22:23 20:23:53 12° 306° (NW) 20:25:22 437.465
HO-68 23 Mar 20:26:47 20:33:41 50° 260° (W) 20:40:38 435.675
SO-50 23 Mar 20:37:31 20:39:11 12° 358° (N) 20:40:52 436.795
Oscar 11 23 Mar 20:40:06 20:44:13 45° 70° (ENE) 20:48:21 .
ZACube-1 23 Mar 20:41:11 20:45:40 60° 72° (ENE) 20:50:07 437.345
YUBILEINY 23 Mar 20:41:29 20:49:46 51° 271° (W) 20:58:01 435.215
AAUSAT CUBESAT 2 23 Mar 21:04:37 21:08:31 42° 262° (W) 21:12:27 437.432
AO-73 23 Mar 21:11:28 21:16:02 78° 258° (WSW) 21:20:31 145.935
SEEDS 23 Mar 21:11:45 21:14:52 20° 268° (W) 21:17:59 437.485
CUTE 1.7 + AOD 2 23 Mar 21:13:34 21:15:51 14° 272° (W) 21:18:08 437.475
AO-85 23 Mar 21:15:46 21:17:23 12° 111° (ESE) 21:18:57 145.980
DELFI C3 23 Mar 21:17:30 21:21:04 34° 68° (ENE) 21:24:40 145.870
PCSat 23 Mar 21:18:36 21:22:23 20° 253° (WSW) 21:26:10 145.827
STRAND 1 23 Mar 21:25:18 21:30:17 52° 291° (WNW) 21:35:14 437.568
UWE-3 23 Mar 21:29:52 21:34:03 32° 265° (W) 21:38:13 435.000/436.395/437.385
M-CUBED/EXP-1 PRIME 23 Mar 21:46:11 21:48:23 14° 310° (NW) 21:50:38 437.505
CUBEBUG 2 23 Mar 21:59:25 22:01:34 13° 274° (W) 22:03:44 437.445
UNISAT 6 23 Mar 22:06:02 22:08:15 13° 87° (E) 22:10:25 437.425
PRISM 23 Mar 22:13:48 22:17:23 27° 95° (E) 22:20:57 437.425
LO-87 23 Mar 22:15:40 22:18:19 20° 64° (ENE) 22:21:00 145.935 - 145.965
Oscar 11 23 Mar 22:17:16 22:20:35 21° 268° (W) 22:23:54 .
SO-50 23 Mar 22:18:22 22:21:28 18° 23° (NNE) 22:24:32 436.795
ZACube-1 23 Mar 22:19:11 22:22:19 18° 270° (W) 22:25:26 437.345
ISS 23 Mar 22:24:59 22:27:23 19° 140° (SE) 22:29:48 437.550
FO-29 23 Mar 22:25:48 22:29:39 17° 83° (E) 22:33:13 435.910
ESTCUBE 1 23 Mar 22:30:59 22:34:20 21° 61° (ENE) 22:37:42 437.505/2401.250
RS-15 23 Mar 22:32:12 22:44:37 86° 234° (SW) 22:56:31 29.354- 29.394
Tancredo 1 23 Mar 22:38:31 22:41:11 25° 144° (SE) 22:43:54 437.200
YUBILEINY 23 Mar 22:43:12 22:44:17 10° 294° (WNW) 22:45:23 435.215
DELFI C3 23 Mar 22:52:47 22:55:57 23° 267° (W) 22:59:09 145.870
AO-85 23 Mar 22:52:50 22:57:12 85° 127° (SE) 23:01:18 145.980
STRAND 1 23 Mar 23:08:00 23:08:21 10° 311° (NW) 23:08:43 437.568
SPROUT 23 Mar 23:28:07 23:31:23 21° 62° (ENE) 23:34:40 437.525
50 SAT 23 Mar 23:28:51 23:30:26 13° 60° (ENE) 23:32:03 437.505
TIGRISAT 23 Mar 23:31:48 23:36:19 82° 104° (ESE) 23:40:41 435.000
UNISAT 6 23 Mar 23:41:03 23:45:34 77° 285° (WNW) 23:49:56 437.425
POLYITAN 1 23 Mar 23:42:02 23:43:20 11° 87° (E) 23:44:37 437.675
DX 1 23 Mar 23:44:29 23:47:23 18° 59° (ENE) 23:50:17 434.975-435.025
QB50P2 23 Mar 23:45:49 23:47:55 13° 88° (E) 23:50:00 145.880/145.840
LO-87 23 Mar 23:48:13 23:51:34 36° 262° (W) 23:54:57 145.935 - 145.965
BEESAT 3 23 Mar 23:48:48 23:52:25 36° 120° (ESE) 23:56:06 437.485
PRISM 23 Mar 23:48:57 23:52:42 33° 294° (WNW) 23:56:27 437.425
VELOX 1 23 Mar 23:55:48 23:59:59 44° 69° (ENE) 00:04:12 145.980
SO-50 23 Mar 23:58:22 00:02:51 59° 46° (NE) 00:07:17 436.795
BEESAT 2 23 Mar 23:58:24 00:01:21 20° 115° (ESE) 00:04:21 435.950
ISS 24 Mar 00:00:13 00:03:30 82° 158° (SSE) 00:06:48 437.550
DUCHIFAT 1 24 Mar 00:02:24 00:04:55 15° 89° (E) 00:07:25 145.980
ESTCUBE 1 24 Mar 00:06:26 00:10:48 53° 260° (W) 00:15:13 437.505/2401.250
FO-29 24 Mar 00:09:23 00:15:49 88° 286° (WNW) 00:21:29 435.910
Tancredo 1 24 Mar 00:13:55 00:17:07 82° 346° (NNW) 00:20:20 437.200
UKube-1 24 Mar 00:29:34 00:33:24 32° 65° (ENE) 00:37:15 .
BUGSAT 1 24 Mar 00:32:06 00:33:13 11° 86° (E) 00:34:20 437.445
AO-85 24 Mar 00:34:56 00:38:05 20° 328° (NNW) 00:41:07 145.980
AIST 2D 24 Mar 00:35:01 00:38:31 67° 101° (ESE) 00:41:59 435.315
NANOSAT C BR1 24 Mar 00:45:43 00:49:48 44° 99° (E) 00:53:49 145.865
RS-15 24 Mar 00:45:48 00:55:26 29° 259° (WSW) 01:04:47 29.354- 29.394
EO-79 24 Mar 00:48:18 00:52:28 50° 100° (E) 00:56:35 145.935-145.965
50 SAT 24 Mar 00:59:40 01:03:03 58° 258° (WSW) 01:06:30 437.505
SPROUT 24 Mar 01:02:50 01:07:00 48° 261° (W) 01:11:13 437.525
TIGRISAT 24 Mar 01:09:53 01:12:23 15° 303° (WNW) 01:14:49 435.000
POLYITAN 1 24 Mar 01:15:28 01:19:45 86° 285° (WNW) 01:23:59 437.675
DX 1 24 Mar 01:18:48 01:23:07 64° 258° (WSW) 01:27:29 434.975-435.025
ITUPSAT 1 24 Mar 01:18:53 01:20:48 12° 53° (NE) 01:22:44 437.325
UNISAT 6 24 Mar 01:19:52 01:21:28 12° 306° (NW) 01:23:04 437.425
QB50P2 24 Mar 01:19:57 01:24:13 72° 287° (WNW) 01:28:26 145.880/145.840
BEESAT 3 24 Mar 01:26:27 01:30:04 33° 320° (NW) 01:33:44 437.485
VELOX 1 24 Mar 01:33:07 01:36:38 23° 267° (W) 01:40:11 145.980
BEESAT 2 24 Mar 01:34:52 01:38:47 54° 314° (NW) 01:42:46 435.950
DUCHIFAT 1 24 Mar 01:36:49 01:41:01 62° 288° (WNW) 01:45:10 145.980
ISS 24 Mar 01:36:52 01:40:07 54° 359° (N) 01:43:22 437.550
SO-50 24 Mar 01:39:26 01:42:58 23° 245° (WSW) 01:46:28 436.795
Tancredo 1 24 Mar 01:50:19 01:53:28 53° 3° (N) 01:56:38 437.200
FO-29 24 Mar 01:55:32 01:59:54 20° 309° (NW) 02:03:58 435.910
BUGSAT 1 24 Mar 02:04:58 02:09:13 87° 282° (WNW) 02:13:23 437.445
UKube-1 24 Mar 02:05:36 02:09:25 31° 264° (W) 02:13:17 .
AIST 2D 24 Mar 02:09:59 02:11:15 12° 300° (WNW) 02:12:30 435.315
Gurwin Techsat 1B 24 Mar 02:15:24 02:19:42 24° 92° (E) 02:23:59 435.225
NANOSAT C BR1 24 Mar 02:21:56 02:25:16 23° 297° (WNW) 02:28:34 145.865
Oscar 19 24 Mar 02:24:05 02:29:04 46° 99° (E) 02:34:01 437.125/150
EO-79 24 Mar 02:24:46 02:27:55 20° 298° (WNW) 02:31:02 145.935-145.965
BEESAT 24 Mar 02:38:54 02:43:33 54° 70° (ENE) 02:48:14 436.000
O/OREOS (USA 219) 24 Mar 02:45:32 02:49:48 35° 54° (NE) 02:54:03 437.305
ITUPSAT 1 24 Mar 02:53:01 02:57:48 71° 72° (ENE) 03:02:36 437.325
POLYITAN 1 24 Mar 02:53:10 02:54:51 12° 304° (NW) 02:56:32 437.675
QB50P2 24 Mar 02:58:24 02:59:14 10° 306° (NW) 03:00:03 145.880/145.840
AO-7 24 Mar 03:03:56 03:08:13 15° 84° (E) 03:12:28 .
BEESAT 3 24 Mar 03:07:27 03:08:50 11° 342° (NNW) 03:10:14 437.485
ISS 24 Mar 03:13:27 03:16:47 87° 18° (NNE) 03:20:06 437.550
BEESAT 2 24 Mar 03:15:06 03:17:26 15° 336° (NNW) 03:19:47 435.950
MOZHAYETS 4 24 Mar 03:21:32 03:26:03 56° 71° (ENE) 03:30:34
KKS-1 24 Mar 03:25:22 03:28:26 18° 59° (ENE) 03:31:31 437.445
Tancredo 1 24 Mar 03:26:32 03:29:45 76° 202° (SSW) 03:32:57 437.200
BUGSAT 1 24 Mar 03:42:13 03:43:53 12° 304° (NW) 03:45:34 437.445
Gurwin Techsat 1B 24 Mar 03:54:47 03:59:59 56° 291° (WNW) 04:05:11 435.225
AO-85 24 Mar 04:00:48 04:02:16 12° 18° (NNE) 04:03:43 145.980
Oscar 19 24 Mar 04:03:46 04:08:13 30° 298° (WNW) 04:12:38 437.125/150
ITAMSAT 1 24 Mar 04:04:47 04:09:40 39° 98° (E) 04:14:30 435.822/435.867
CUBESAT XI-V 24 Mar 04:06:36 04:10:36 31° 65° (ENE) 04:14:38 437.345
STARS 24 Mar 04:09:07 04:12:33 22° 61° (ENE) 04:15:59 437.465
BEESAT 24 Mar 04:18:01 04:21:39 21° 268° (W) 04:25:20 436.000
O/OREOS (USA 219) 24 Mar 04:25:03 04:29:11 33° 254° (WSW) 04:33:18 437.305
ITUPSAT 1 24 Mar 04:33:07 04:36:09 17° 271° (W) 04:39:11 437.325
ISS 24 Mar 04:50:15 04:52:59 24° 217° (SW) 04:55:42 437.550
AO-7 24 Mar 04:54:22 05:02:39 66° 105° (ESE) 05:10:53 .
KKS-1 24 Mar 05:00:07 05:04:33 64° 258° (WSW) 05:09:02 437.445
MOZHAYETS 4 24 Mar 05:00:16 05:03:34 19° 269° (W) 05:06:53
Tancredo 1 24 Mar 05:03:18 05:05:30 17° 220° (SW) 05:07:41 437.200
M-CUBED/EXP-1 PRIME 24 Mar 05:26:18 05:29:39 32° 60° (ENE) 05:33:15 437.505
STRAND 1 24 Mar 05:32:23 05:33:10 10° 49° (NE) 05:33:57 437.568
Gurwin Techsat 1B 24 Mar 05:37:18 05:38:51 11° 311° (NW) 05:40:25 435.225
AO-85 24 Mar 05:40:06 05:43:46 37° 42° (NE) 05:47:28 145.980
CUBESAT XI-V 24 Mar 05:43:42 05:47:56 35° 264° (W) 05:52:10 437.345
STARS 24 Mar 05:44:18 05:48:36 49° 260° (W) 05:52:56 437.465
ITAMSAT 1 24 Mar 05:44:23 05:49:05 35° 296° (WNW) 05:53:45 435.822/435.867
XW-2D 24 Mar 06:09:41 06:09:59 10° 87° (E) 06:10:18 145.860 - 145.880
XW-2B 24 Mar 06:14:40 06:15:55 11° 88° (E) 06:17:11 145.730 - 145.750
DOVE 4 24 Mar 06:20:01 06:24:25 26° 91° (E) 06:28:48 437.250
KAITUO 1B 24 Mar 06:22:10 06:23:17 11° 88° (E) 06:24:24 145.475/437.950
XW-2C 24 Mar 06:23:56 06:26:06 15° 90° (E) 06:28:16 145.795 - 145.815
BEESAT 3 24 Mar 06:24:29 06:27:25 19° 30° (NNE) 06:30:21 437.485
BEESAT 2 24 Mar 06:34:10 06:36:27 14° 24° (NNE) 06:38:44 435.950
AO-7 24 Mar 06:47:38 06:55:02 38° 307° (NW) 07:02:25 .
M-CUBED/EXP-1 PRIME 24 Mar 07:01:01 07:04:10 26° 261° (W) 07:07:32 437.505
STRAND 1 24 Mar 07:06:15 07:11:15 53° 69° (ENE) 07:16:16 437.568
LilacSat-2 24 Mar 07:13:12 07:16:55 52° 100° (E) 07:20:35 437.200
CUTE-I 24 Mar 07:13:55 07:19:05 45° 99° (E) 07:24:12 437.470
XW-2F 24 Mar 07:16:45 07:20:26 52° 100° (E) 07:24:05 145.980 - 146.000
AO-85 24 Mar 07:20:38 07:24:05 30° 241° (WSW) 07:27:35 145.980
XW-2D 24 Mar 07:40:57 07:44:43 77° 285° (WNW) 07:48:27 145.860 - 145.880
XW-2B 24 Mar 07:46:50 07:50:35 68° 285° (WNW) 07:54:18 145.730 - 145.750
HO-68 24 Mar 07:49:50 07:55:49 28° 92° (E) 08:01:46 435.675
NUDT-PHONESAT 24 Mar 07:50:13 07:53:55 75° 285° (WNW) 07:57:34 437.300
YUBILEINY 24 Mar 07:51:01 07:59:02 43° 86° (E) 08:07:02 435.215
KAITUO 1B 24 Mar 07:54:05 07:57:46 68° 286° (WNW) 08:01:26 145.475/437.950
XW-2C 24 Mar 07:56:58 08:00:38 51° 288° (WNW) 08:04:16 145.795 - 145.815
DOVE 4 24 Mar 07:57:12 08:02:23 54° 290° (WNW) 08:07:31 437.250
BEESAT 3 24 Mar 08:01:32 08:05:36 88° 51° (NE) 08:09:38 437.485
CUBEBUG 2 24 Mar 08:07:48 08:10:17 15° 87° (E) 08:12:42 437.445
BEESAT 2 24 Mar 08:11:08 08:15:07 51° 45° (NE) 08:19:05 435.950
FO-29 24 Mar 08:41:58 08:47:02 20° 51° (NE) 08:51:53 435.910
AO-7 24 Mar 08:42:08 08:45:30 13° 331° (NNW) 08:48:52 .
AAUSAT CUBESAT 2 24 Mar 08:42:40 08:45:55 22° 93° (E) 08:49:10 437.432
XW-2A 24 Mar 08:43:50 08:47:16 86° 105° (ESE) 08:50:39 145.665 - 145.685
STRAND 1 24 Mar 08:46:33 08:50:43 24° 267° (W) 08:54:55 437.568
LilacSat-2 24 Mar 08:48:28 08:50:50 16° 298° (WNW) 08:53:11 437.200
